FW5335 Weather Reports


time (UTC)temp
C
wind
direction
speed
KPH
gust
KPH
rain 1hr
cm
rain 24hr
cm
rain mn
cm
humidity
%
barometer
mb
20260905111537 20 338 6.4 16.1 0.00 0.00 0.00 57 1026.2
20260905110516 20 68 4.8 8.0 0.00 0.00 0.00 56 1026.3
20260905105516 20 23 6.4 12.9 0.00 0.00 0.00 58 1026.4
20260905104518 21 315 6.4 17.7 0.00 0.00 0.00 55 1026.6
20260905103516 21 270 6.4 17.7 0.00 0.00 0.00 55 1026.6
20260905102516 20 248 8.0 17.7 0.00 0.00 0.00 56 1026.6
20260905101518 19 248 9.7 16.1 0.00 0.00 0.00 63 1026.4
20260905100519 18 270 4.8 11.3 0.00 0.00 0.00 65 1026.3
20260905095518 18 225 6.4 11.3 0.00 0.00 0.00 67 1026.4
20260905094516 17 270 6.4 14.5 0.00 0.00 0.00 67 1026.1
20260905093516 17 270 4.8 11.3 0.00 0.00 0.00 66 1025.9
20260905092518 17 248 6.4 14.5 0.00 0.00 0.00 68 1025.8
20260905091525 17 248 3.2 8.0 0.00 0.00 0.00 70 1026.0
20260905090518 17 248 3.2 9.7 0.00 0.00 0.00 71 1025.8
20260905085521 17 225 4.8 9.7 0.00 0.00 0.00 72 1026.0
20260905084518 16 270 4.8 11.3 0.00 0.00 0.00 73 1025.7
20260905083518 16 270 4.8 11.3 0.00 0.00 0.00 73 1025.6
20260905082540 16 270 6.4 11.3 0.00 0.00 0.00 74 1025.4
20260905081520 16 270 3.2 8.0 0.00 0.00 0.00 74 1025.1
20260905080520 15 270 4.8 11.3 0.00 0.00 0.00 74 1025.2
20260905075519 15 270 3.2 11.3 0.00 0.00 0.00 75 1025.2
20260905074541 15 293 1.6 4.8 0.00 0.00 0.00 77 1024.9
20260905073519 15 0.0 3.2 0.00 0.00 0.00 79 1024.9
20260905072520 14 270 1.6 4.8 0.00 0.00 0.00 81 1024.8
20260905071518 13 248 3.2 8.0 0.00 0.00 0.00 81 1024.8
20260905070521 13 225 1.6 4.8 0.00 0.00 0.00 82 1024.6
20260905065525 13 248 3.2 6.4 0.00 0.00 0.00 82 1024.7
20260905064519 12 248 4.8 11.3 0.00 0.00 0.00 84 1024.6
20260905063538 12 248 3.2 6.4 0.00 0.00 0.00 84 1024.5
20260905062521 12 0 1.6 6.4 0.00 0.00 0.00 84 1024.4
20260905061518 12 225 1.6 4.8 0.00 0.00 0.00 83 1024.4
20260905060519 12 225 3.2 8.0 0.00 0.00 0.00 82 1024.3
20260905055518 12 248 3.2 6.4 0.00 0.00 0.00 82 1024.2
20260905054522 12 248 1.6 4.8 0.00 0.08 0.00 82 1024.1
20260905053520 12 225 1.6 6.4 0.00 0.08 0.00 83 1023.9
20260905052523 12 248 1.6 4.8 0.00 0.08 0.00 84 1023.8
20260905051518 12 248 4.8 9.7 0.00 0.08 0.00 85 1023.7
20260905050518 12 225 6.4 11.3 0.00 0.08 0.00 86 1023.7
20260905045539 12 225 8.0 16.1 0.00 0.08 0.00 88 1023.4
20260905044518 12 225 6.4 12.9 0.00 0.08 0.00 89 1023.4
20260905043520 11 225 8.0 14.5 0.00 0.08 0.00 89 1023.4
20260905042519 11 225 4.8 9.7 0.00 0.08 0.00 89 1023.2
20260905041540 11 225 4.8 12.9 0.00 0.08 0.00 89 1023.3
20260905040519 11 225 6.4 14.5 0.00 0.08 0.00 89 1023.0
20260905035525 11 248 4.8 11.3 0.00 0.08 0.00 90 1023.0
20260905034519 11 225 4.8 11.3 0.00 0.08 0.00 90 1022.9
20260905033519 11 248 3.2 12.9 0.00 0.08 0.00 90 1022.8
20260905032519 11 248 3.2 8.0 0.00 0.08 0.00 90 1022.6
20260905031518 11 248 3.2 9.7 0.00 0.08 0.00 88 1022.7
20260905030519 11 0.0 1.6 0.00 0.08 0.00 87 1022.6
20260905025517 11 0 1.6 3.2 0.00 0.08 0.00 87 1022.5
20260905024519 11 0 3.2 4.8 0.00 0.08 0.00 87 1022.4
20260905023601 11 23 1.6 3.2 0.00 0.08 0.00 87 1022.5
20260905022520 12 248 1.6 3.2 0.00 0.08 0.00 87 1022.4
20260905021519 12 248 3.2 11.3 0.00 0.08 0.00 87 1022.2
20260905020517 12 248 3.2 8.0 0.00 0.08 0.00 87 1022.2
20260905015520 12 225 4.8 9.7 0.00 0.08 0.00 87 1022.2
20260905014522 12 225 4.8 9.7 0.00 0.08 0.00 87 1022.2
20260905013519 12 248 4.8 11.3 0.00 0.08 0.00 87 1022.3
20260905012517 12 248 4.8 8.0 0.00 0.08 0.00 87 1022.3
20260905011519 12 225 3.2 6.4 0.00 0.08 0.00 86 1022.2
20260905010539 12 225 4.8 8.0 0.00 0.08 0.00 86 1022.1
20260905005519 12 225 3.2 12.9 0.00 0.08 0.00 86 1022.1
20260905004538 12 225 4.8 8.0 0.00 0.08 0.00 85 1022.2
20260905003517 12 248 4.8 8.0 0.00 0.08 0.00 85 1022.1
20260905002519 12 225 4.8 8.0 0.00 0.08 0.00 85 1022.1
20260905001519 12 225 4.8 11.3 0.00 0.08 0.00 85 1022.0
20260905000517 12 225 6.4 12.9 0.00 0.08 0.00 85 1021.8
20260904235518 12 225 6.4 14.5 0.00 0.08 0.00 85 1021.7
20260904234518 12 225 6.4 11.3 0.00 0.08 0.00 85 1021.7
20260904233519 12 225 6.4 11.3 0.00 0.08 0.00 85 1021.6
20260904232537 12 225 6.4 11.3 0.00 0.08 0.00 84 1021.6
20260904231528 12 225 4.8 8.0 0.00 0.08 0.00 84 1021.7
20260904230523 12 225 4.8 9.7 0.00 0.08 0.00 83 1021.7
20260904225519 12 225 3.2 8.0 0.00 0.08 0.08 83 1021.6
20260904224517 13 225 4.8 8.0 0.00 0.08 0.08 83 1021.6
20260904223519 13 225 8.0 14.5 0.00 0.08 0.08 83 1021.3
20260904222541 13 225 9.7 17.7 0.00 0.08 0.08 83 1021.5
20260904221517 13 225 8.0 14.5 0.00 0.08 0.08 83 1021.5
20260904220540 13 225 8.0 12.9 0.00 0.08 0.08 83 1021.5
20260904215519 13 225 6.4 14.5 0.00 0.08 0.08 83 1021.4
20260904214523 13 225 6.4 12.9 0.00 0.08 0.08 83 1021.2
20260904213524 13 225 6.4 9.7 0.00 0.08 0.08 83 1020.9
20260904212519 13 225 4.8 9.7 0.00 0.08 0.08 83 1020.9
20260904211519 13 225 6.4 11.3 0.00 0.08 0.08 83 1021.0
20260904210519 13 225 6.4 9.7 0.00 0.08 0.08 82 1021.0
20260904205520 13 225 4.8 9.7 0.00 0.08 0.08 82 1021.0
20260904204517 13 225 6.4 11.3 0.00 0.08 0.08 82 1020.9
20260904203542 13 225 6.4 11.3 0.00 0.08 0.08 81 1020.9
20260904202559 14 225 6.4 11.3 0.00 0.08 0.08 81 1020.9
20260904201518 14 225 4.8 8.0 0.00 0.08 0.08 80 1020.9
20260904200618 14 225 4.8 9.7 0.00 0.08 0.08 79 1020.6
20260904195520 15 225 4.8 9.7 0.00 0.08 0.08 78 1020.6
20260904194518 15 225 4.8 9.7 0.00 0.08 0.08 77 1020.5
20260904193522 15 225 6.4 11.3 0.00 0.08 0.08 76 1020.3
20260904192620 16 225 6.4 9.7 0.00 0.08 0.08 75 1020.4
20260904191520 16 248 4.8 11.3 0.00 0.08 0.08 74 1020.3
20260904190520 16 248 8.0 17.7 0.00 0.08 0.08 73 1020.2
20260904185522 16 248 6.4 16.1 0.00 0.08 0.08 72 1020.2
20260904184520 16 248 9.7 19.3 0.00 0.08 0.08 72 1020.1
20260904183519 17 270 8.0 22.5 0.00 0.08 0.08 71 1020.0
20260904182520 17 248 9.7 19.3 0.00 0.08 0.08 72 1019.8
20260904181524 17 248 11.3 20.9 0.00 0.08 0.08 72 1019.6
20260904180520 17 248 9.7 24.1 0.00 0.08 0.08 72 1019.7
20260904175520 17 225 9.7 24.1 0.00 0.08 0.08 72 1019.7
20260904174601 17 270 8.0 14.5 0.00 0.08 0.08 71 1019.6
20260904173543 17 270 9.7 20.9 0.00 0.08 0.08 71 1019.5
20260904172520 17 248 9.7 25.7 0.00 0.08 0.08 71 1019.3
20260904171619 17 225 9.7 17.7 0.00 0.08 0.08 70 1019.4
20260904170518 17 248 11.3 22.5 0.00 0.08 0.08 69 1019.6
20260904165520 17 248 16.1 27.4 0.00 0.08 0.08 68 1019.3
20260904164520 17 248 11.3 22.5 0.00 0.08 0.08 68 1019.2
20260904163519 17 248 12.9 25.7 0.00 0.08 0.08 68 1019.0
20260904162541 18 248 12.9 24.1 0.00 0.08 0.08 67 1019.0
20260904161521 18 270 11.3 24.1 0.00 0.08 0.08 65 1019.0
20260904160519 18 248 11.3 20.9 0.00 0.08 0.08 63 1019.2
20260904155518 18 248 9.7 17.7 0.00 0.08 0.08 63 1019.3
20260904154519 18 248 11.3 20.9 0.00 0.08 0.08 63 1019.1
20260904153519 18 248 12.9 22.5 0.00 0.08 0.08 62 1019.1
20260904152521 18 248 11.3 20.9 0.00 0.08 0.08 63 1018.8
20260904151520 18 270 11.3 20.9 0.00 0.08 0.08 64 1019.0
20260904150517 18 248 11.3 22.5 0.00 0.08 0.08 62 1019.0
20260904145521 19 248 14.5 25.7 0.00 0.08 0.08 61 1018.7
20260904144559 19 248 11.3 19.3 0.00 0.08 0.08 61 1018.7
20260904143521 19 270 16.1 27.4 0.00 0.08 0.08 62 1018.6
20260904142520 19 270 12.9 22.5 0.00 0.08 0.08 61 1018.6
20260904141518 18 270 16.1 25.7 0.00 0.08 0.08 62 1018.6
20260904140519 18 270 14.5 27.4 0.00 0.08 0.08 63 1018.5
20260904135519 18 270 12.9 25.7 0.00 0.08 0.08 61 1018.3
20260904134520 18 270 12.9 25.7 0.00 0.08 0.08 60 1018.3
20260904133518 19 270 14.5 29.0 0.00 0.08 0.08 60 1018.3
20260904132516 18 270 14.5 27.4 0.00 0.08 0.08 63 1018.1
20260904131516 19 270 8.0 22.5 0.00 0.08 0.08 64 1017.9
20260904130519 19 270 8.0 20.9 0.00 0.08 0.08 65 1017.9
20260904125518 19 293 12.9 25.7 0.00 0.08 0.08 63 1018.0
20260904124520 19 248 8.0 16.1 0.00 0.08 0.08 63 1017.5
20260904123521 19 270 12.9 24.1 0.00 0.08 0.08 60 1017.5
20260904122520 19 270 8.0 17.7 0.00 0.08 0.08 65 1017.6
20260904121517 19 248 14.5 29.0 0.00 0.08 0.08 64 1017.5
20260904120521 20 248 14.5 29.0 0.00 0.08 0.08 65 1017.4
20260904115517 20 270 17.7 32.2 0.00 0.08 0.08 66 1017.4
20260904114519 20 270 16.1 30.6 0.00 0.08 0.08 67 1017.1
20260904113522 20 270 11.3 25.7 0.00 0.08 0.08 68 1017.0
20260904112516 20 270 14.5 27.4 0.00 0.08 0.08 68 1017.0